Location: Central Falls
(41.8900°N, 71.3929°W)
Time: 03:02:21
(UTC+00:00)

Tiros 1 - Pass Details

Date: 10 December 2023
Orbit: 625 x 658 km, 48.4° (Epoch: 01 March)

Event Time Altitude Azimuth Distance (km) Brightness Sun altitude
Rises 11:28:59 0° 296° (WNW) 2,988 - -6.3°
Exits shadow 11:30:45 - 299° (WNW) 2,309 9.3 -6.0°
Reaches altitude 10° 11:31:23 10° 301° (WNW) 2,075 9.1 -5.9°
Maximum altitude 11:36:06 55° 19° (NNE) 791 7.6 -5.1°
Drops below altitude 10° 11:40:47 10° 98° (E) 2,065 11.2 -4.3°
Sets 11:43:10 0° 103° (ESE) 2,971 12.5 -3.9°
